Terminal Aerodrome Forecast
Issued by NWS St Louis, MO

Home | Current Version | Previous Version | Text Only | Print | Product List | Glossary On
Versions: 1 2 3 4 5 6 7 8 9 10 11 12 13 14 15 16 17 18 19 20 21 22 23 24 25 26
000
FTUS43 KLSX 032113 AAA
TAFSTL
TAF AMD
KSTL 032113Z 0321/0424 33006KT P6SM FEW040 SCT150
     FM032300 31006KT P6SM VCTS SCT040CB SCT250
     FM040100 36004KT P6SM SCT050 SCT250
     FM041900 VRB04KT P6SM VCTS SCT040CB SCT250=

USA.gov is the U.S. government's official web portal to all federal, state and local government web resources and services.